• In Hungary
  • List of Countries
  • For 7 days
  • Water Temperature
  • Satellite Maps
  • Weather Map
  • News
  • Weather Widgets
  • user-avatar
    Login

    Hourly Weather Camargo

    Today, 18 June, Monday

    Time Temperature Precipitation Wind Pressure Humidity
    00:00 +15°C° 0 mm 1 mps 760 mmHg 94%
    01:00 +15°C° 0 mm 2 mps 760 mmHg 92%
    02:00 +14°C° 0 mm 2 mps 760 mmHg 91%
    03:00 +14°C° 0 mm 2 mps 759 mmHg 90%
    04:00 +15°C° 0 mm 2 mps 759 mmHg 88%
    05:00 +16°C° 0 mm 2 mps 760 mmHg 87%
    06:00 +17°C° 0 mm 2 mps 760 mmHg 85%
    07:00 +19°C° 0 mm 2 mps 759 mmHg 80%
    08:00 +21°C° 0 mm 2 mps 759 mmHg 75%
    09:00 +24°C° 0 mm 2 mps 759 mmHg 70%
    10:00 +25°C° 0 mm 3 mps 759 mmHg 69%
    11:00 +25°C° 0 mm 3 mps 759 mmHg 68%
    12:00 +26°C° 0 mm 3 mps 759 mmHg 67%
    13:00 +26°C° 0 mm 3 mps 759 mmHg 68%
    14:00 +26°C° 0 mm 3 mps 759 mmHg 69%
    15:00 +26°C° 0 mm 3 mps 759 mmHg 70%
    16:00 +25°C° 0 mm 3 mps 759 mmHg 75%
    17:00 +24°C° 0 mm 3 mps 759 mmHg 80%
    18:00 +22°C° 0 mm 3 mps 759 mmHg 85%
    19:00 +21°C° 0 mm 3 mps 759 mmHg 90%
    20:00 +20°C° 0 mm 2 mps 759 mmHg 94%
    21:00 +19°C° 0 mm 2 mps 759 mmHg 98%
    22:00 +18°C° 0 mm 2 mps 759 mmHg 98%
    23:00 +19°C° 0 mm 1 mps 759 mmHg 98%

    Tomorrow, 19 June, Tuesday

    Time Temperature Precipitation Wind Pressure Humidity
    00:00 +19°C° 0 mm 1 mps 759 mmHg 98%
    01:00 +19°C° 0 mm 1 mps 759 mmHg 98%
    02:00 +17°C° 0 mm 2 mps 759 mmHg 98%
    03:00 +17°C° 0 mm 2 mps 758 mmHg 98%
    04:00 +17°C° 0 mm 2 mps 758 mmHg 97%
    05:00 +18°C° 0 mm 2 mps 758 mmHg 97%
    06:00 +18°C° 0 mm 2 mps 758 mmHg 96%
    07:00 +20°C° 0 mm 2 mps 758 mmHg 89%
    08:00 +21°C° 0 mm 3 mps 757 mmHg 82%
    09:00 +24°C° 0 mm 3 mps 757 mmHg 75%
    10:00 +25°C° 0 mm 4 mps 757 mmHg 71%
    11:00 +26°C° 0 mm 4 mps 757 mmHg 68%
    12:00 +28°C° 0 mm 4 mps 756 mmHg 64%
    13:00 +28°C° 0 mm 4 mps 756 mmHg 63%
    14:00 +29°C° 0 mm 5 mps 755 mmHg 62%
    15:00 +30°C° 0 mm 5 mps 755 mmHg 62%
    16:00 +29°C° 0 mm 5 mps 755 mmHg 66%
    17:00 +28°C° 0 mm 4 mps 755 mmHg 71%
    18:00 +27°C° 0 mm 4 mps 754 mmHg 75%
    19:00 +25°C° 0 mm 4 mps 755 mmHg 82%
    20:00 +22°C° 0 mm 3 mps 755 mmHg 89%
    21:00 +20°C° 0 mm 2 mps 755 mmHg 96%
    22:00 +20°C° 0 mm 2 mps 755 mmHg 96%
    23:00 +20°C° 0 mm 2 mps 755 mmHg 95%

    Day after tomorrow, 20 June, Wednesday

    Time Temperature Precipitation Wind Pressure Humidity
    00:00 +20°C° 0 mm 2 mps 754 mmHg 95%
    01:00 +21°C° 0 mm 1 mps 754 mmHg 95%
    02:00 +21°C° 0 mm 1 mps 754 mmHg 94%
    03:00 +21°C° 0 mm 1 mps 754 mmHg 94%
    04:00 +22°C° 0 mm 1 mps 754 mmHg 93%
    05:00 +23°C° 0 mm 1 mps 754 mmHg 91%
    06:00 +23°C° 0 mm 1 mps 754 mmHg 89%
    07:00 +26°C° 0 mm 1 mps 753 mmHg 80%
    08:00 +28°C° 0 mm 1 mps 753 mmHg 71%
    09:00 +31°C° 0 mm 1 mps 753 mmHg 62%
    10:00 +32°C° 0.1 mm 1 mps 753 mmHg 61%
    11:00 +34°C° 0.1 mm 2 mps 753 mmHg 59%
    12:00 +35°C° 0.1 mm 2 mps 753 mmHg 58%
    13:00 +34°C° 0.4 mm 2 mps 753 mmHg 60%
    14:00 +34°C° 0.4 mm 2 mps 753 mmHg 62%
    15:00 +34°C° 0.4 mm 2 mps 753 mmHg 65%
    16:00 +32°C° 0.5 mm 2 mps 753 mmHg 71%
    17:00 +30°C° 0.5 mm 2 mps 753 mmHg 78%
    18:00 +29°C° 0.5 mm 2 mps 752 mmHg 84%
    19:00 +27°C° 0.1 mm 2 mps 753 mmHg 88%
    20:00 +25°C° 0.1 mm 1 mps 753 mmHg 91%
    21:00 +23°C° 0.1 mm 1 mps 754 mmHg 95%
    22:00 +23°C° 0 mm 1 mps 754 mmHg 94%
    23:00 +23°C° 0 mm 1 mps 754 mmHg 93%

    21 June, Thursday

    Time Temperature Precipitation Wind Pressure Humidity
    00:00 +23°C° 0 mm 1 mps 754 mmHg 92%
    01:00 +22°C° 0 mm 1 mps 754 mmHg 93%
    02:00 +22°C° 0 mm 1 mps 754 mmHg 93%
    03:00 +21°C° 0 mm 1 mps 753 mmHg 93%
    04:00 +22°C° 0 mm 1 mps 754 mmHg 92%
    05:00 +22°C° 0 mm 1 mps 754 mmHg 92%
    06:00 +23°C° 0 mm 1 mps 754 mmHg 91%
    07:00 +25°C° 0 mm 2 mps 754 mmHg 84%
    08:00 +27°C° 0 mm 2 mps 754 mmHg 76%
    09:00 +29°C° 0 mm 2 mps 754 mmHg 69%
    10:00 +29°C° 0.1 mm 3 mps 754 mmHg 68%
    11:00 +30°C° 0.1 mm 3 mps 754 mmHg 66%
    12:00 +32°C° 0.1 mm 4 mps 754 mmHg 64%
    13:00 +32°C° 0.2 mm 4 mps 754 mmHg 67%
    14:00 +30°C° 0.2 mm 3 mps 754 mmHg 70%
    15:00 +29°C° 0.2 mm 3 mps 754 mmHg 73%
    16:00 +28°C° 0 mm 3 mps 754 mmHg 77%
    17:00 +27°C° 0 mm 3 mps 754 mmHg 82%
    18:00 +26°C° 0 mm 2 mps 754 mmHg 86%
    19:00 +25°C° 0 mm 2 mps 754 mmHg 90%
    20:00 +24°C° 0 mm 2 mps 755 mmHg 94%
    21:00 +23°C° 0 mm 2 mps 755 mmHg 98%
    22:00 +23°C° 0 mm 2 mps 755 mmHg 98%
    23:00 +23°C° 0 mm 2 mps 755 mmHg 98%

    22 June, Friday

    Time Temperature Precipitation Wind Pressure Humidity
    00:00 +23°C° 0 mm 2 mps 755 mmHg 98%
    01:00 +23°C° 0 mm 2 mps 755 mmHg 98%
    02:00 +23°C° 0 mm 2 mps 755 mmHg 98%
    03:00 +23°C° 0 mm 2 mps 754 mmHg 98%
    04:00 +22°C° 0 mm 3 mps 754 mmHg 98%
    05:00 +22°C° 0 mm 3 mps 754 mmHg 97%
    06:00 +22°C° 0 mm 3 mps 755 mmHg 97%
    07:00 +23°C° 0 mm 4 mps 755 mmHg 95%
    08:00 +25°C° 0 mm 4 mps 755 mmHg 92%
    09:00 +25°C° 0 mm 4 mps 755 mmHg 89%
    10:00 +26°C° 0 mm 4 mps 755 mmHg 87%
    11:00 +26°C° 0 mm 4 mps 755 mmHg 85%
    12:00 +27°C° 0 mm 5 mps 755 mmHg 83%
    13:00 +27°C° 0 mm 5 mps 755 mmHg 84%
    14:00 +26°C° 0 mm 5 mps 755 mmHg 84%
    15:00 +26°C° 0 mm 5 mps 755 mmHg 85%
    16:00 +25°C° 0 mm 5 mps 755 mmHg 87%
    17:00 +25°C° 0 mm 4 mps 755 mmHg 89%
    18:00 +23°C° 0 mm 4 mps 755 mmHg 91%
    19:00 +22°C° 0 mm 4 mps 755 mmHg 93%
    20:00 +21°C° 0 mm 3 mps 755 mmHg 96%
    21:00 +20°C° 0 mm 3 mps 756 mmHg 98%
    22:00 +19°C° 0 mm 3 mps 756 mmHg 98%
    23:00 +19°C° 0 mm 2 mps 756 mmHg 98%

    23 June, Saturday

    Time Temperature Precipitation Wind Pressure Humidity
    00:00 +19°C° 0 mm 2 mps 756 mmHg 98%
    01:00 +18°C° 0 mm 2 mps 756 mmHg 98%
    02:00 +17°C° 0 mm 3 mps 755 mmHg 98%
    03:00 +17°C° 0 mm 3 mps 755 mmHg 98%
    04:00 +17°C° 0 mm 3 mps 755 mmHg 97%
    05:00 +17°C° 0 mm 3 mps 755 mmHg 96%
    06:00 +18°C° 0 mm 3 mps 755 mmHg 95%
    07:00 +20°C° 0 mm 4 mps 755 mmHg 85%
    08:00 +22°C° 0 mm 4 mps 755 mmHg 75%
    09:00 +25°C° 0 mm 4 mps 755 mmHg 65%
    10:00 +26°C° 0 mm 4 mps 755 mmHg 63%
    11:00 +27°C° 0 mm 5 mps 755 mmHg 60%
    12:00 +28°C° 0 mm 5 mps 755 mmHg 58%
    13:00 +28°C° 0 mm 5 mps 754 mmHg 59%
    14:00 +28°C° 0 mm 5 mps 754 mmHg 61%
    15:00 +28°C° 0 mm 5 mps 754 mmHg 63%
    16:00 +27°C° 0 mm 5 mps 754 mmHg 67%
    17:00 +26°C° 0 mm 5 mps 754 mmHg 72%
    18:00 +23°C° 0 mm 5 mps 754 mmHg 77%
    19:00 +21°C° 0 mm 4 mps 754 mmHg 83%
    20:00 +19°C° 0 mm 4 mps 755 mmHg 90%
    21:00 +17°C° 0 mm 3 mps 755 mmHg 96%
    22:00 +16°C° 0 mm 3 mps 755 mmHg 96%
    23:00 +16°C° 0 mm 3 mps 755 mmHg 95%
    Show more